contact:dominique.lefevre@mio.osupytheas.fr, maurice.libes@osupytheas.fr, didier.mallarino@osupytheas.fr
Project:EMSO http://www.emso-fr.org/EMSO-France
Depth: 2436.0 m
Title:EMSO Ligure Ouest : Data MII capteur AQUADOPP
Date,Latitude,Longitude,X_East,Y_North,Z_Up,Amplitude_X,Amplitude_Y,Amplitude_Z,Batterie,SoundSpeed,Heading,Pitch,Roll,Pressure,TIS,Speed,Direction
, degrees North, degrees East, m.s-1, m.s-1,m.s-1, 1, 1, 1, Volt, m.s-1, degree, degree, degree, dbar, degree_C, m.s-1, degree
2022-10-12T00:04:03,42.805,6.029,0.009,-0.003,0.022,100.0,102.0,99.0,13.4,1505.2,327.0,-0.8,1.8,2471.05,13.28,0.009,108.4
2022-10-12T00:07:03,42.805,6.029,0.011,-0.006,-0.022,100.0,101.0,99.0,13.4,1505.2,319.8,-0.8,1.8,2471.079,13.28,0.012,118.6
2022-10-12T00:10:03,42.805,6.029,0.009,-0.034,-0.011,100.0,101.0,100.0,13.4,1505.2,326.3,-0.8,1.8,2471.016,13.28,0.035,165.2
2022-10-12T00:13:03,42.805,6.029,0.03,0.006,0.019,102.0,100.0,99.0,13.3,1505.2,323.9,-0.8,1.8,2471.025,13.28,0.03,78.7
2022-10-12T00:16:03,42.805,6.029,-0.007,-0.014,-0.011,102.0,99.0,100.0,13.4,1505.2,331.5,-0.7,1.8,2471.002,13.28,0.015,206.6
2022-10-12T00:19:03,42.805,6.029,0.031,-0.021,0.008,101.0,102.0,100.0,13.4,1505.2,322.3,-0.8,1.8,2471.007,13.29,0.037,124.1
2022-10-12T00:22:03,42.805,6.029,0.025,-0.042,-0.016,100.0,99.0,100.0,13.4,1505.2,330.3,-0.8,1.8,2471.023,13.29,0.048,149.2
2022-10-12T00:25:03,42.805,6.029,0.033,-0.031,-0.02,101.0,102.0,99.0,13.4,1505.2,329.0,-0.8,1.8,2470.978,13.29,0.045,133.2
2022-10-12T00:28:03,42.805,6.029,-0.007,-0.021,-0.025,100.0,101.0,99.0,13.4,1505.2,318.9,-0.7,1.8,2470.973,13.29,0.022,198.4
2022-10-12T00:31:03,42.805,6.029,0.029,-0.017,-0.016,99.0,103.0,99.0,13.3,1505.2,326.1,-0.8,1.8,2471.01,13.29,0.033,120.4
2022-10-12T00:34:03,42.805,6.029,0.032,-0.031,-0.01,100.0,100.0,100.0,13.4,1505.2,328.3,-0.8,1.9,2470.981,13.29,0.044,134.1
2022-10-12T00:37:03,42.805,6.029,0.002,0.005,-0.011,100.0,99.0,100.0,13.4,1505.2,328.9,-0.8,1.8,2470.972,13.29,0.005,21.8
2022-10-12T00:40:03,42.805,6.029,0.017,-0.044,-0.017,100.0,100.0,99.0,13.4,1505.2,317.7,-0.8,1.9,2470.956,13.29,0.047,158.9
2022-10-12T00:43:03,42.805,6.029,0.016,-0.041,-0.045,102.0,100.0,100.0,13.3,1505.2,317.1,-0.8,1.8,2471.042,13.29,0.044,158.7
2022-10-12T00:46:03,42.805,6.029,0.008,-0.01,0.002,102.0,100.0,98.0,13.4,1505.2,319.8,-0.8,1.8,2470.957,13.29,0.012,141.3
2022-10-12T00:49:03,42.805,6.029,0.004,-0.008,0.015,101.0,100.0,99.0,13.4,1505.2,334.3,-0.8,1.8,2471.01,13.29,0.008,153.4
2022-10-12T00:52:03,42.805,6.029,0.034,-0.017,-0.003,99.0,101.0,100.0,13.3,1505.2,319.2,-0.8,1.8,2470.996,13.29,0.038,116.6
2022-10-12T00:55:03,42.805,6.029,0.04,-0.014,-0.012,100.0,100.0,98.0,13.4,1505.2,319.0,-0.7,1.8,2470.997,13.29,0.042,109.3
2022-10-12T00:58:03,42.805,6.029,-0.008,-0.014,-0.012,100.0,101.0,100.0,13.3,1505.2,326.8,-0.7,1.8,2471.022,13.29,0.016,209.7
2022-10-12T01:04:03,42.805,6.029,0.025,-0.003,0.043,102.0,101.0,103.0,13.3,1505.2,321.7,-0.7,1.8,2470.997,13.28,0.025,96.8
2022-10-12T01:07:03,42.805,6.029,0.008,-0.023,-0.007,99.0,100.0,100.0,13.4,1505.2,326.5,-0.7,1.8,2471.044,13.28,0.024,160.8
2022-10-12T01:10:03,42.805,6.029,0.0,-0.013,-0.005,99.0,100.0,101.0,13.4,1505.2,328.6,-0.8,1.8,2470.982,13.28,0.013,180.0
2022-10-12T01:13:03,42.805,6.029,0.002,-0.013,-0.025,100.0,100.0,99.0,13.4,1505.2,327.0,-0.8,1.8,2471.008,13.28,0.013,171.3
2022-10-12T01:16:03,42.805,6.029,0.007,-0.026,-0.049,101.0,99.0,100.0,13.3,1505.2,320.2,-0.7,1.8,2471.003,13.28,0.026,164.9
2022-10-12T01:19:03,42.805,6.029,0.019,-0.024,-0.002,98.0,102.0,101.0,13.4,1505.2,316.3,-0.8,1.8,2471.015,13.28,0.03,141.6
2022-10-12T01:22:03,42.805,6.029,0.03,-0.027,-0.013,101.0,99.0,100.0,13.3,1505.2,327.5,-0.8,1.8,2470.994,13.29,0.04,132.0
2022-10-12T01:25:03,42.805,6.029,-0.018,0.0,0.018,100.0,101.0,99.0,13.4,1505.2,329.6,-0.8,1.9,2471.01,13.29,0.018,270.0
2022-10-12T01:28:03,42.805,6.029,0.01,-0.023,-0.019,101.0,100.0,99.0,13.3,1505.2,329.4,-0.7,1.8,2470.999,13.29,0.025,156.5
2022-10-12T01:31:03,42.805,6.029,0.012,-0.021,0.013,99.0,102.0,100.0,13.4,1505.2,321.8,-0.8,1.8,2470.954,13.29,0.024,150.3
2022-10-12T01:34:03,42.805,6.029,0.027,-0.011,-0.001,100.0,99.0,101.0,13.4,1505.2,322.1,-0.8,1.8,2470.99,13.29,0.029,112.2
2022-10-12T01:37:03,42.805,6.029,-0.015,0.002,-0.035,101.0,101.0,100.0,13.4,1505.2,322.3,-0.8,1.8,2470.926,13.29,0.015,277.6
2022-10-12T01:40:03,42.805,6.029,0.008,-0.031,-0.013,101.0,100.0,100.0,13.4,1505.2,319.9,-0.8,1.8,2470.978,13.29,0.032,165.5
2022-10-12T01:43:03,42.805,6.029,0.009,0.0,0.02,101.0,101.0,99.0,13.4,1505.2,330.4,-0.7,1.8,2470.969,13.29,0.009,90.0
2022-10-12T01:46:03,42.805,6.029,-0.015,-0.022,-0.035,99.0,101.0,100.0,13.4,1505.2,328.9,-0.7,1.8,2470.947,13.29,0.026,214.3
2022-10-12T01:49:03,42.805,6.029,0.02,-0.024,-0.024,99.0,102.0,99.0,13.4,1505.2,333.4,-0.7,1.8,2470.948,13.29,0.031,140.2
2022-10-12T01:52:03,42.805,6.029,0.0,-0.006,-0.022,101.0,100.0,100.0,13.3,1505.2,332.8,-0.7,1.8,2470.939,13.29,0.006,180.0
2022-10-12T01:55:03,42.805,6.029,-0.002,-0.015,-0.008,100.0,100.0,99.0,13.3,1505.2,327.6,-0.8,1.8,2470.975,13.29,0.015,187.6
2022-10-12T01:58:03,42.805,6.029,0.017,-0.021,-0.024,101.0,99.0,100.0,13.4,1505.2,322.6,-0.8,1.8,2470.959,13.29,0.027,141.0
2022-10-12T02:04:03,42.805,6.029,0.022,-0.026,-0.016,100.0,101.0,100.0,13.4,1505.2,326.4,-0.7,1.8,2471.027,13.28,0.034,139.8
2022-10-12T02:07:03,42.805,6.029,0.027,-0.035,-0.037,100.0,101.0,99.0,13.4,1505.2,327.6,-0.8,1.8,2471.033,13.28,0.044,142.3
2022-10-12T02:10:03,42.805,6.029,0.026,-0.025,-0.03,101.0,99.0,100.0,13.3,1505.2,323.7,-0.7,1.8,2470.949,13.28,0.036,133.9
2022-10-12T02:13:03,42.805,6.029,0.008,-0.008,-0.004,100.0,101.0,99.0,13.4,1505.2,324.5,-0.8,1.8,2470.962,13.28,0.011,135.0
2022-10-12T02:16:03,42.805,6.029,0.061,-0.009,0.0,99.0,101.0,100.0,13.4,1505.2,323.4,-0.8,1.8,2470.999,13.28,0.061,98.4
2022-10-12T02:19:03,42.805,6.029,0.018,-0.024,0.017,100.0,101.0,100.0,13.3,1505.2,331.8,-0.7,1.8,2470.962,13.28,0.03,143.1
2022-10-12T02:22:03,42.805,6.029,0.009,-0.026,0.019,100.0,101.0,100.0,13.4,1505.2,321.5,-0.8,1.8,2470.964,13.29,0.027,160.9
2022-10-12T02:25:03,42.805,6.029,0.026,-0.045,-0.028,102.0,102.0,98.0,13.4,1505.2,327.0,-0.7,1.8,2470.958,13.29,0.051,150.0
2022-10-12T02:28:03,42.805,6.029,0.001,-0.026,0.005,101.0,100.0,100.0,13.4,1505.2,329.0,-0.8,1.8,2470.963,13.29,0.026,177.8
2022-10-12T02:31:03,42.805,6.029,0.017,0.009,0.002,101.0,101.0,99.0,13.4,1505.2,318.7,-0.7,1.8,2470.951,13.29,0.019,62.1
2022-10-12T02:34:03,42.805,6.029,0.023,-0.044,-0.013,100.0,101.0,99.0,13.4,1505.2,330.1,-0.7,1.8,2470.953,13.29,0.049,152.4
2022-10-12T02:37:03,42.805,6.029,0.014,-0.019,-0.003,100.0,101.0,99.0,13.3,1505.2,325.1,-0.8,1.8,2470.95,13.29,0.023,143.6
2022-10-12T02:40:03,42.805,6.029,0.019,-0.056,-0.039,100.0,100.0,100.0,13.4,1505.2,332.5,-0.8,1.8,2470.942,13.29,0.059,161.3
2022-10-12T02:43:03,42.805,6.029,0.027,-0.025,-0.008,100.0,99.0,99.0,13.4,1505.2,334.6,-0.8,1.8,2470.981,13.29,0.036,132.8
2022-10-12T02:46:03,42.805,6.029,0.024,-0.023,-0.008,99.0,101.0,100.0,13.3,1505.2,330.2,-0.8,1.8,2470.993,13.29,0.033,133.8
2022-10-12T02:49:03,42.805,6.029,0.04,-0.018,-0.001,102.0,99.0,99.0,13.3,1505.2,320.9,-0.8,1.8,2470.941,13.29,0.043,114.2
2022-10-12T02:52:03,42.805,6.029,0.027,-0.002,0.006,101.0,100.0,98.0,13.4,1505.2,317.6,-0.7,1.8,2470.96,13.29,0.027,94.2
2022-10-12T02:55:03,42.805,6.029,-0.002,-0.018,-0.02,101.0,100.0,99.0,13.4,1505.2,326.4,-0.8,1.8,2470.967,13.29,0.018,186.3
2022-10-12T02:58:03,42.805,6.029,0.009,-0.034,-0.03,100.0,100.0,100.0,13.4,1505.2,330.8,-0.8,1.8,2470.96,13.29,0.035,165.2
2022-10-12T03:04:03,42.805,6.029,0.044,-0.028,-0.026,101.0,100.0,99.0,13.4,1505.2,319.4,-0.7,1.8,2470.976,13.28,0.052,122.5
2022-10-12T03:07:03,42.805,6.029,0.006,-0.025,-0.021,98.0,101.0,100.0,13.3,1505.2,323.2,-0.8,1.8,2471.003,13.28,0.025,166.5
2022-10-12T03:10:03,42.805,6.029,0.021,-0.007,0.01,101.0,100.0,99.0,13.4,1505.2,324.5,-0.8,1.8,2470.968,13.28,0.022,108.4
2022-10-12T03:13:03,42.805,6.029,0.021,-0.028,0.019,100.0,99.0,100.0,13.4,1505.2,320.3,-0.8,1.8,2470.953,13.28,0.035,143.1
2022-10-12T03:16:03,42.805,6.029,0.003,-0.02,-0.026,99.0,100.0,99.0,13.4,1505.2,319.4,-0.7,1.8,2470.969,13.28,0.02,171.5
2022-10-12T03:19:03,42.805,6.029,0.0,-0.043,-0.037,100.0,100.0,99.0,13.3,1505.2,329.0,-0.7,1.8,2470.984,13.28,0.043,180.0
2022-10-12T03:22:03,42.805,6.029,0.009,-0.021,-0.029,100.0,101.0,99.0,13.3,1505.2,323.3,-0.7,1.8,2470.914,13.29,0.022,156.8
2022-10-12T03:25:03,42.805,6.029,0.016,-0.049,-0.044,99.0,100.0,100.0,13.4,1505.2,331.6,-0.8,1.8,2470.98,13.28,0.051,161.9
2022-10-12T03:28:03,42.805,6.029,0.016,-0.024,-0.007,100.0,100.0,100.0,13.4,1505.2,323.3,-0.7,1.9,2470.974,13.29,0.028,146.3
2022-10-12T03:31:03,42.805,6.029,0.029,-0.015,0.012,100.0,101.0,99.0,13.4,1505.2,332.5,-0.7,1.8,2470.934,13.29,0.032,117.4
2022-10-12T03:34:03,42.805,6.029,0.009,-0.036,-0.055,100.0,101.0,100.0,13.4,1505.2,326.1,-0.8,1.8,2470.953,13.29,0.037,166.0
2022-10-12T03:37:03,42.805,6.029,0.033,-0.029,-0.051,100.0,100.0,99.0,13.3,1505.2,320.5,-0.8,1.8,2470.945,13.29,0.043,131.3
2022-10-12T03:40:03,42.805,6.029,0.025,-0.025,0.0,100.0,101.0,99.0,13.4,1505.2,323.8,-0.7,1.8,2470.975,13.29,0.035,135.0
2022-10-12T03:43:03,42.805,6.029,0.006,-0.024,-0.027,101.0,100.0,100.0,13.4,1505.2,329.0,-0.8,1.8,2470.946,13.29,0.024,166.0
2022-10-12T03:46:03,42.805,6.029,0.011,-0.033,-0.013,99.0,100.0,100.0,13.3,1505.2,318.8,-0.8,1.8,2470.962,13.29,0.034,161.6
2022-10-12T03:49:03,42.805,6.029,-0.002,-0.011,-0.017,101.0,101.0,99.0,13.3,1505.2,323.0,-0.7,1.8,2470.96,13.29,0.011,190.3
2022-10-12T03:52:03,42.805,6.029,0.014,-0.023,-0.007,102.0,100.0,100.0,13.4,1505.2,322.0,-0.7,1.8,2470.976,13.29,0.026,148.7
2022-10-12T03:55:03,42.805,6.029,0.009,-0.009,-0.012,100.0,101.0,100.0,13.4,1505.2,322.3,-0.8,1.8,2470.962,13.29,0.012,135.0
2022-10-12T03:58:03,42.805,6.029,0.023,-0.013,-0.007,101.0,101.0,99.0,13.4,1505.2,329.3,-0.7,1.8,2470.994,13.29,0.026,119.5
2022-10-12T04:04:03,42.805,6.029,-0.001,-0.028,-0.025,101.0,101.0,100.0,13.4,1505.2,329.1,-0.8,1.8,2471.02,13.28,0.028,182.0
2022-10-12T04:07:03,42.805,6.029,0.012,-0.032,-0.061,101.0,101.0,99.0,13.4,1505.2,327.1,-0.8,1.8,2471.007,13.28,0.034,159.4
2022-10-12T04:10:03,42.805,6.029,0.032,-0.046,-0.013,102.0,101.0,99.0,13.4,1505.2,326.4,-0.7,1.8,2470.992,13.28,0.056,145.2
2022-10-12T04:13:03,42.805,6.029,-0.002,-0.016,-0.004,100.0,102.0,99.0,13.4,1505.2,321.1,-0.7,1.8,2470.979,13.28,0.016,187.1
2022-10-12T04:16:03,42.805,6.029,0.01,-0.016,-0.026,101.0,101.0,101.0,13.4,1505.2,333.1,-0.7,1.8,2470.959,13.28,0.018,148.0
2022-10-12T04:19:03,42.805,6.029,0.012,-0.022,-0.043,101.0,101.0,99.0,13.4,1505.2,323.1,-0.8,1.8,2470.97,13.28,0.025,151.4
2022-10-12T04:22:03,42.805,6.029,0.006,0.012,-0.005,101.0,100.0,101.0,13.4,1505.2,327.6,-0.8,1.8,2470.959,13.29,0.013,26.6
2022-10-12T04:25:03,42.805,6.029,0.001,-0.007,0.002,100.0,101.0,100.0,13.4,1505.2,323.3,-0.7,1.8,2470.997,13.29,0.007,171.9
2022-10-12T04:28:03,42.805,6.029,0.015,-0.008,-0.01,101.0,102.0,100.0,13.4,1505.2,332.4,-0.8,1.8,2470.991,13.29,0.017,118.1
2022-10-12T04:31:03,42.805,6.029,0.028,-0.039,-0.019,101.0,100.0,101.0,13.3,1505.2,329.4,-0.8,1.8,2470.998,13.29,0.048,144.3
2022-10-12T04:34:03,42.805,6.029,0.025,-0.014,-0.019,101.0,101.0,99.0,13.4,1505.2,327.1,-0.8,1.8,2471.013,13.28,0.028,119.3
2022-10-12T04:37:03,42.805,6.029,0.03,-0.048,-0.02,102.0,101.0,100.0,13.4,1505.2,322.4,-0.8,1.8,2470.993,13.28,0.056,148.0
2022-10-12T04:40:03,42.805,6.029,0.031,-0.025,-0.006,100.0,101.0,100.0,13.3,1505.2,322.3,-0.7,1.8,2470.977,13.29,0.039,128.9
2022-10-12T04:43:03,42.805,6.029,0.025,-0.018,0.002,101.0,101.0,100.0,13.4,1505.2,327.3,-0.8,1.8,2470.958,13.29,0.03,125.8
2022-10-12T04:46:03,42.805,6.029,0.013,-0.018,-0.018,101.0,101.0,100.0,13.4,1505.2,323.6,-0.7,1.8,2471.003,13.29,0.022,144.2
2022-10-12T04:49:03,42.805,6.029,0.036,-0.041,0.018,101.0,101.0,100.0,13.4,1505.2,333.1,-0.7,1.8,2471.01,13.29,0.054,138.7
2022-10-12T04:52:03,42.805,6.029,0.017,-0.025,-0.037,100.0,101.0,100.0,13.4,1505.2,320.3,-0.8,1.8,2470.987,13.29,0.03,145.8
2022-10-12T04:55:03,42.805,6.029,0.023,-0.03,-0.035,101.0,102.0,100.0,13.4,1505.2,321.7,-0.8,1.8,2471.013,13.29,0.037,142.5
2022-10-12T04:58:03,42.805,6.029,0.017,-0.005,0.006,99.0,103.0,100.0,13.4,1505.2,327.7,-0.7,1.8,2471.001,13.29,0.017,106.4
2022-10-12T05:04:03,42.805,6.029,0.025,-0.037,-0.008,101.0,101.0,100.0,13.4,1505.2,324.9,-0.8,1.8,2471.055,13.28,0.044,146.0
2022-10-12T05:07:03,42.805,6.029,0.018,-0.034,-0.009,102.0,100.0,100.0,13.4,1505.2,326.6,-0.8,1.8,2471.051,13.28,0.038,152.1
2022-10-12T05:10:03,42.805,6.029,0.024,-0.019,0.01,101.0,102.0,99.0,13.4,1505.2,322.0,-0.8,1.8,2471.012,13.28,0.03,128.4
2022-10-12T05:13:03,42.805,6.029,0.038,-0.04,-0.036,100.0,102.0,99.0,13.4,1505.2,325.5,-0.7,1.8,2471.05,13.28,0.055,136.5
2022-10-12T05:16:03,42.805,6.029,0.021,-0.025,-0.023,100.0,102.0,100.0,13.4,1505.2,319.9,-0.7,1.8,2471.048,13.28,0.032,140.0
2022-10-12T05:19:03,42.805,6.029,0.036,-0.013,0.006,101.0,102.0,101.0,13.4,1505.2,321.1,-0.8,1.8,2471.034,13.28,0.038,109.9
2022-10-12T05:22:03,42.805,6.029,0.042,-0.008,0.007,100.0,101.0,100.0,13.4,1505.2,319.1,-0.8,1.8,2471.016,13.28,0.042,100.8
2022-10-12T05:25:03,42.805,6.029,0.018,-0.011,-0.003,100.0,101.0,99.0,13.4,1505.2,319.8,-0.8,1.8,2471.038,13.29,0.021,121.4
2022-10-12T05:28:03,42.805,6.029,0.032,-0.03,0.0,101.0,102.0,100.0,13.3,1505.2,318.3,-0.8,1.8,2471.037,13.28,0.043,133.1
2022-10-12T05:31:03,42.805,6.029,0.013,-0.015,-0.025,101.0,102.0,100.0,13.3,1505.2,316.7,-0.8,1.8,2471.027,13.29,0.019,139.1
2022-10-12T05:34:03,42.805,6.029,0.046,-0.008,-0.008,100.0,100.0,100.0,13.4,1505.2,326.1,-0.8,1.8,2471.037,13.28,0.046,99.9
2022-10-12T05:37:03,42.805,6.029,0.012,-0.001,0.01,103.0,100.0,100.0,13.4,1505.2,318.4,-0.8,1.8,2471.02,13.29,0.012,94.8
2022-10-12T05:40:03,42.805,6.029,0.0,-0.009,-0.001,101.0,101.0,100.0,13.3,1505.2,324.3,-0.7,1.8,2471.03,13.29,0.009,180.0
2022-10-12T05:43:03,42.805,6.029,0.042,-0.021,-0.036,100.0,101.0,100.0,13.4,1505.2,322.1,-0.8,1.8,2471.068,13.28,0.046,116.6
2022-10-12T05:46:03,42.805,6.029,0.031,-0.019,-0.025,101.0,100.0,99.0,13.3,1505.2,328.1,-0.8,1.8,2471.068,13.28,0.036,121.5
2022-10-12T05:49:03,42.805,6.029,0.012,-0.023,-0.025,100.0,102.0,101.0,13.3,1505.2,326.5,-0.7,1.8,2471.069,13.29,0.025,152.4
2022-10-12T05:52:03,42.805,6.029,0.043,-0.033,-0.029,101.0,102.0,99.0,13.4,1505.2,333.1,-0.7,1.8,2471.073,13.28,0.054,127.5
2022-10-12T05:55:03,42.805,6.029,0.037,-0.032,-0.006,100.0,102.0,99.0,13.3,1505.2,331.4,-0.8,1.8,2471.087,13.28,0.048,130.9
2022-10-12T05:58:03,42.805,6.029,0.007,-0.026,0.0,100.0,101.0,100.0,13.3,1505.2,334.0,-0.8,1.8,2471.053,13.29,0.026,164.9
2022-10-12T06:04:03,42.805,6.029,0.025,0.002,0.03,99.0,102.0,100.0,13.4,1505.2,317.2,-0.7,1.8,2471.102,13.28,0.025,85.4
2022-10-12T06:07:03,42.805,6.029,0.012,-0.007,-0.019,100.0,100.0,100.0,13.4,1505.2,317.1,-0.8,1.8,2471.092,13.28,0.013,120.3
2022-10-12T06:10:03,42.805,6.029,0.02,-0.021,-0.009,101.0,101.0,99.0,13.4,1505.2,325.5,-0.8,1.8,2471.117,13.28,0.028,136.4
2022-10-12T06:13:03,42.805,6.029,0.019,-0.009,0.005,101.0,100.0,100.0,13.3,1505.2,320.5,-0.8,1.8,2471.096,13.28,0.021,115.3
2022-10-12T06:16:03,42.805,6.029,0.034,-0.014,-0.04,101.0,101.0,100.0,13.3,1505.2,329.3,-0.8,1.8,2471.084,13.28,0.036,112.4
2022-10-12T06:19:03,42.805,6.029,0.058,-0.02,0.006,101.0,101.0,100.0,13.4,1505.2,324.5,-0.8,1.8,2471.066,13.28,0.061,109.0
2022-10-12T06:22:03,42.805,6.029,0.01,-0.019,-0.02,100.0,101.0,101.0,13.4,1505.2,327.6,-0.8,1.8,2471.089,13.28,0.021,152.2
2022-10-12T06:25:03,42.805,6.029,0.034,-0.007,0.014,102.0,100.0,100.0,13.3,1505.2,316.3,-0.7,1.8,2471.091,13.28,0.034,101.6
2022-10-12T06:28:03,42.805,6.029,0.007,-0.024,-0.007,100.0,101.0,100.0,13.3,1505.2,331.6,-0.8,1.8,2471.094,13.28,0.025,163.7
2022-10-12T06:31:03,42.805,6.029,0.04,-0.022,0.02,101.0,100.0,100.0,13.4,1505.2,327.6,-0.8,1.8,2471.122,13.28,0.045,118.8
2022-10-12T06:34:03,42.805,6.029,0.035,-0.039,0.003,101.0,101.0,100.0,13.4,1505.2,329.9,-0.8,1.9,2471.112,13.28,0.052,138.1
2022-10-12T06:37:03,42.805,6.029,0.015,-0.032,-0.002,101.0,101.0,100.0,13.3,1505.2,327.3,-0.7,1.8,2471.12,13.28,0.035,154.9
2022-10-12T06:40:03,42.805,6.029,0.031,-0.017,-0.019,101.0,101.0,100.0,13.3,1505.2,326.9,-0.8,1.8,2471.1,13.28,0.035,118.7
2022-10-12T06:43:03,42.805,6.029,0.022,0.002,-0.011,101.0,101.0,100.0,13.3,1505.2,330.6,-0.7,1.8,2471.138,13.28,0.022,84.8
2022-10-12T06:46:03,42.805,6.029,0.041,-0.032,-0.021,100.0,101.0,100.0,13.3,1505.2,324.7,-0.7,1.8,2471.134,13.28,0.052,128.0
2022-10-12T06:49:03,42.805,6.029,0.027,-0.023,-0.002,101.0,100.0,100.0,13.4,1505.2,320.5,-0.7,1.8,2471.095,13.29,0.035,130.4
2022-10-12T06:52:03,42.805,6.029,0.037,-0.033,-0.025,101.0,101.0,100.0,13.4,1505.2,317.0,-0.7,1.8,2471.1,13.28,0.049,131.7
2022-10-12T06:55:03,42.805,6.029,0.012,-0.019,-0.03,101.0,101.0,100.0,13.4,1505.2,333.7,-0.7,1.8,2471.113,13.28,0.022,147.7
2022-10-12T06:58:03,42.805,6.029,0.034,-0.015,-0.023,101.0,101.0,101.0,13.4,1505.2,322.3,-0.8,1.9,2471.158,13.28,0.037,113.8
2022-10-12T07:04:03,42.805,6.029,0.021,-0.01,0.001,101.0,101.0,100.0,13.4,1505.2,317.7,-0.8,1.8,2471.187,13.28,0.023,115.5
2022-10-12T07:07:03,42.805,6.029,0.023,-0.016,-0.013,101.0,101.0,100.0,13.4,1505.2,322.5,-0.7,1.8,2471.181,13.28,0.028,124.8
2022-10-12T07:10:03,42.805,6.029,0.043,-0.021,-0.001,102.0,101.0,100.0,13.4,1505.2,326.9,-0.8,1.8,2471.172,13.28,0.047,116.0
2022-10-12T07:13:03,42.805,6.029,0.02,-0.013,-0.007,101.0,101.0,100.0,13.4,1505.2,327.0,-0.8,1.8,2471.151,13.28,0.023,123.0
2022-10-12T07:16:03,42.805,6.029,0.03,-0.014,-0.055,101.0,101.0,99.0,13.4,1505.2,322.8,-0.7,1.8,2471.177,13.28,0.033,115.0
2022-10-12T07:19:03,42.805,6.029,0.038,-0.015,-0.009,101.0,101.0,99.0,13.4,1505.2,331.5,-0.8,1.8,2471.204,13.28,0.04,111.5
2022-10-12T07:22:03,42.805,6.029,0.008,-0.024,-0.012,100.0,100.0,100.0,13.3,1505.2,323.7,-0.8,1.8,2471.199,13.28,0.025,161.6
2022-10-12T07:25:03,42.805,6.029,0.035,-0.045,-0.023,102.0,101.0,100.0,13.4,1505.2,333.1,-0.8,1.8,2471.14,13.28,0.057,142.1
2022-10-12T07:28:03,42.805,6.029,0.036,-0.03,-0.005,101.0,102.0,100.0,13.3,1505.2,332.5,-0.7,1.8,2471.154,13.28,0.046,129.8
2022-10-12T07:31:03,42.805,6.029,0.036,-0.012,-0.021,100.0,101.0,99.0,13.3,1505.2,330.8,-0.7,1.8,2471.168,13.28,0.037,108.4
2022-10-12T07:34:03,42.805,6.029,0.029,-0.018,-0.04,101.0,101.0,100.0,13.4,1505.2,321.1,-0.8,1.8,2471.182,13.28,0.034,121.8
2022-10-12T07:37:03,42.805,6.029,0.035,-0.005,-0.008,100.0,101.0,101.0,13.3,1505.2,321.2,-0.8,1.8,2471.19,13.29,0.035,98.1
2022-10-12T07:40:03,42.805,6.029,0.016,-0.038,-0.008,101.0,101.0,100.0,13.4,1505.2,326.8,-0.8,1.8,2471.155,13.29,0.041,157.2
2022-10-12T07:43:03,42.805,6.029,0.06,-0.019,-0.018,101.0,101.0,100.0,13.3,1505.2,327.0,-0.8,1.8,2471.146,13.28,0.062,107.6
2022-10-12T07:46:03,42.805,6.029,0.033,-0.023,-0.01,101.0,101.0,100.0,13.3,1505.2,329.1,-0.8,1.8,2471.163,13.28,0.04,124.9
2022-10-12T07:49:03,42.805,6.029,0.012,-0.038,-0.033,102.0,101.0,100.0,13.3,1505.2,329.5,-0.8,1.8,2471.19,13.28,0.039,162.5
2022-10-12T07:52:03,42.805,6.029,0.036,-0.022,-0.021,101.0,101.0,100.0,13.4,1505.2,321.7,-0.8,1.8,2471.192,13.28,0.042,121.4
2022-10-12T07:55:03,42.805,6.029,-0.001,-0.006,-0.003,101.0,101.0,100.0,13.4,1505.2,322.5,-0.7,1.9,2471.189,13.29,0.006,189.5
2022-10-12T07:58:03,42.805,6.029,0.059,-0.031,-0.01,101.0,101.0,100.0,13.4,1505.2,319.1,-0.7,1.8,2471.191,13.29,0.066,117.7
2022-10-12T08:04:03,42.805,6.029,0.035,-0.022,-0.017,100.0,102.0,100.0,13.3,1505.2,321.0,-0.8,1.9,2471.195,13.28,0.041,122.2
2022-10-12T08:07:03,42.805,6.029,0.01,-0.021,-0.004,101.0,101.0,100.0,13.4,1505.2,319.8,-0.7,1.8,2471.204,13.28,0.023,154.5
2022-10-12T08:10:03,42.805,6.029,0.019,-0.022,-0.013,101.0,101.0,100.0,13.4,1505.2,332.4,-0.7,1.8,2471.188,13.28,0.029,139.2
2022-10-12T08:13:03,42.805,6.029,0.021,-0.027,-0.044,101.0,102.0,100.0,13.4,1505.2,323.2,-0.8,1.8,2471.218,13.28,0.034,142.1
2022-10-12T08:16:03,42.805,6.029,0.048,-0.041,-0.012,101.0,102.0,100.0,13.3,1505.2,328.4,-0.8,1.8,2471.184,13.28,0.063,130.5
2022-10-12T08:19:03,42.805,6.029,0.024,-0.009,0.0,100.0,101.0,101.0,13.3,1505.2,330.1,-0.8,1.8,2471.17,13.28,0.025,110.6
2022-10-12T08:22:03,42.805,6.029,0.025,-0.001,0.021,102.0,101.0,100.0,13.4,1505.2,318.4,-0.8,1.8,2471.174,13.28,0.025,92.3
2022-10-12T08:25:03,42.805,6.029,0.033,-0.013,-0.011,101.0,102.0,100.0,13.4,1505.2,317.2,-0.7,1.8,2471.172,13.28,0.035,111.5
2022-10-12T08:28:03,42.805,6.029,0.023,-0.014,-0.007,102.0,102.0,100.0,13.4,1505.2,326.3,-0.7,1.8,2471.178,13.28,0.026,121.3
2022-10-12T08:31:03,42.805,6.029,0.022,-0.027,-0.018,101.0,101.0,100.0,13.4,1505.2,325.9,-0.8,1.8,2471.151,13.28,0.034,140.8
2022-10-12T08:34:03,42.805,6.029,0.013,-0.01,-0.003,100.0,100.0,100.0,13.4,1505.2,325.9,-0.7,1.8,2471.148,13.29,0.016,127.6
2022-10-12T08:37:03,42.805,6.029,0.061,-0.039,-0.008,101.0,101.0,100.0,13.4,1505.2,327.7,-0.8,1.8,2471.169,13.28,0.072,122.6
2022-10-12T08:40:03,42.805,6.029,0.017,0.0,0.027,101.0,101.0,100.0,13.4,1505.2,328.4,-0.8,1.8,2471.187,13.28,0.017,90.0
2022-10-12T08:43:03,42.805,6.029,0.03,-0.026,-0.032,102.0,101.0,100.0,13.3,1505.2,318.0,-0.8,1.8,2471.227,13.28,0.039,130.9
2022-10-12T08:46:03,42.805,6.029,0.038,-0.02,-0.012,100.0,101.0,100.0,13.3,1505.2,319.0,-0.7,1.8,2471.172,13.29,0.042,117.8
2022-10-12T08:49:03,42.805,6.029,0.017,-0.041,0.0,102.0,102.0,101.0,13.4,1505.2,332.1,-0.7,1.8,2471.197,13.28,0.044,157.5
2022-10-12T08:52:03,42.805,6.029,0.046,-0.024,-0.006,102.0,101.0,100.0,13.4,1505.2,327.1,-0.8,1.8,2471.195,13.28,0.051,117.6
2022-10-12T08:55:03,42.805,6.029,0.033,-0.027,-0.018,101.0,101.0,100.0,13.4,1505.2,328.0,-0.8,1.8,2471.179,13.28,0.042,129.3
2022-10-12T08:58:03,42.805,6.029,0.047,-0.022,-0.013,101.0,101.0,100.0,13.3,1505.2,328.2,-0.8,1.8,2471.139,13.28,0.051,115.1
2022-10-12T09:04:03,42.805,6.029,0.043,-0.025,-0.001,101.0,101.0,100.0,13.4,1505.2,326.8,-0.8,1.8,2471.218,13.28,0.049,120.2
2022-10-12T09:07:03,42.805,6.029,0.03,-0.042,-0.017,101.0,102.0,100.0,13.3,1505.2,332.5,-0.8,1.8,2471.221,13.28,0.051,144.5
2022-10-12T09:10:03,42.805,6.029,0.05,-0.009,0.006,102.0,101.0,101.0,13.4,1505.2,333.7,-0.7,1.8,2471.229,13.28,0.05,100.2
2022-10-12T09:13:03,42.805,6.029,0.038,-0.007,0.0,101.0,103.0,101.0,13.4,1505.2,326.9,-0.7,1.8,2471.202,13.28,0.038,100.4
2022-10-12T09:16:03,42.805,6.029,0.034,-0.02,-0.037,100.0,103.0,100.0,13.4,1505.2,321.5,-0.8,1.8,2471.166,13.28,0.039,120.5
2022-10-12T09:19:03,42.805,6.029,0.047,-0.03,-0.007,101.0,101.0,100.0,13.4,1505.2,319.4,-0.8,1.8,2471.191,13.28,0.055,122.6
2022-10-12T09:22:03,42.805,6.029,0.004,-0.024,-0.013,102.0,102.0,100.0,13.3,1505.2,329.1,-0.8,1.8,2471.159,13.28,0.024,170.5
2022-10-12T09:25:03,42.805,6.029,0.042,-0.009,0.0,100.0,101.0,101.0,13.4,1505.2,326.7,-0.8,1.8,2471.157,13.28,0.042,102.1
2022-10-12T09:28:03,42.805,6.029,0.02,-0.025,0.007,102.0,101.0,101.0,13.3,1505.2,333.7,-0.8,1.8,2471.19,13.28,0.032,141.3
2022-10-12T09:31:03,42.805,6.029,0.051,-0.043,-0.02,101.0,102.0,100.0,13.3,1505.2,326.8,-0.7,1.8,2471.2,13.29,0.066,130.1
2022-10-12T09:34:03,42.805,6.029,0.039,-0.009,-0.004,100.0,102.0,101.0,13.4,1505.2,328.0,-0.8,1.8,2471.157,13.29,0.04,103.0
2022-10-12T09:37:03,42.805,6.029,0.037,-0.012,0.004,102.0,101.0,100.0,13.4,1505.2,320.9,-0.8,1.8,2471.113,13.28,0.038,108.0
2022-10-12T09:40:03,42.805,6.029,0.018,-0.022,-0.022,101.0,102.0,100.0,13.4,1505.2,322.6,-0.8,1.8,2471.136,13.28,0.028,140.7
2022-10-12T09:43:03,42.805,6.029,0.029,-0.028,-0.017,102.0,102.0,100.0,13.3,1505.2,323.8,-0.7,1.8,2471.139,13.29,0.04,134.0
2022-10-12T09:46:03,42.805,6.029,0.035,-0.028,-0.017,102.0,102.0,101.0,13.4,1505.2,321.6,-0.7,1.8,2471.165,13.29,0.044,128.7
2022-10-12T09:49:03,42.805,6.029,0.022,-0.029,-0.025,101.0,102.0,101.0,13.4,1505.2,327.2,-0.8,1.8,2471.158,13.29,0.036,142.8
2022-10-12T09:52:03,42.805,6.029,0.017,-0.028,-0.043,102.0,101.0,100.0,13.4,1505.2,323.5,-0.8,1.8,2471.121,13.28,0.032,148.7
2022-10-12T09:55:03,42.805,6.029,0.032,-0.038,-0.007,102.0,102.0,100.0,13.4,1505.2,328.4,-0.7,1.8,2471.109,13.28,0.049,139.9
2022-10-12T09:58:03,42.805,6.029,0.032,-0.014,-0.021,101.0,102.0,101.0,13.3,1505.2,318.7,-0.8,1.8,2471.166,13.28,0.034,113.6